Location: *
(58.7167°N, 26.1833°E)
Time: 08:23:45
(UTC+00:00)

NOSS 3-4 (A) - Pass Details

Date: 25 August 2019
Orbit: 910 x 1303 km, 63.4° (Epoch: 21 September)

Event Time Altitude Azimuth Distance (km) Brightness Sun altitude
Rises 21:06:11 0° 295° (WNW) 3,693 7.2 -19.2°
Reaches altitude 10° 21:08:41 10° 297° (WNW) 2,789 6.5 -19.3°
Maximum altitude 21:15:17 74° 24° (NNE) 1,121 3.9 -19.5°
Drops below altitude 10° 21:22:34 10° 109° (ESE) 3,067 5.8 -19.8°
Enters shadow 21:23:05 - 110° (ESE) 3,247 5.9 -19.8°
